ARIANE 42P DEB, 44509

Orbit data source: Space-Track

ARIANE 42P DEB, 44509 is space debris in LEO originally from a launch on Mon, 10 Aug 1992 UTC launched from the French Guiana (FRGUI). Debris objects in space refer to the collection of defunct objects orbiting the Earth. Examples of debris include non-operational satellites, rocket bodies, and fragments generated from explosions, collisions, or faulty payload assembly.

Loading next visibility...
Identifier
44509, 1992-052G
Orbit
LEO
Last TLE update
10 hours ago
Origin
Manufacturer
ArianeGroup
Mission
Spacecraft
Bus & Motor
Unknown
Mass
Unknown
Launch date (UTC)
1992-08-10 (33 years ago)
Launch vehicle
Unknown
Launch site
French Guiana (FRGUI)
Object type
Payload
Rocket body
Debris
Shape & HBR
Unknown
Radar Cross Section
Small (<0.1 m²)

Expand to show TLE details & history

TLE from 10 hours ago
0 ARIANE 42P DEB
1 44509U 92052G   25182.71833580  .00000674  00000-0  30243-2 0  9994
2 44509  66.0825 298.0786 0057937  79.0608 281.6920 12.84310798274927
Epoch: 2025-07-01T17:14Z
TLE epoch observation values (Epoch: 2025-07-01T17:14:24.213Z)
Latitude
-0.00005°
Longitude
119.46792°
Altitude
1,317.307 km
Speed
7.203 km/s
True Right ascension
19h 52m 18s
True Declination
0° 00' 00"
Sunlit
Object was in full shadow at epoch
Visualization orbit readout
Latitude
65.71874°
Longitude
-139.39555°
Altitude
1,291.758 km
Speed
7.237 km/s
Apparent Right ascension
02h 42m 07s
Apparent Declination
19° 46' 40"
Sunlit
Object is in daylight
Visualization observer readout
Local Sidereal Time
14:45:31
Azimuth
0.926° NNE
Elevation
-30.301°
Doppler factor
1
Orbital elements
Apogee altitude
1,367.359 km
Perigee altitude
1,278.125 km
Semi-major axis
7,700.879 km
Eccentricity
0.00579
Inclination
66.0825°
RAAN
298.0786°
Arg. of periapsis
79.0608°
True anomaly
Unknown
Mean anomaly
281.692°
Eccentric anomaly
Unknown
Mean motion
3.21168 °/min
Orbital period
112.09 mins
BSTAR
0.0030243
Loading maneuver chart data...
Loading SW <> Apogee altitude chart data...
Loading historical data...
Loading historical data...
Loading historical data...
Loading historical data...
Loading historical data...
Loading historical data...
Loading historical data...

ARIANE 42P DEB Visibility forecast

Observer location: undefined°, undefined°

Span
Click to sort rows by Start time (UTC) header in descending order
Start Az.
Max El. time (UTC)
Max El. Az.
Max El.
End time (UTC)
End Az.
13 mins2025-07-02 08:17:20.676Z168.057° S2025-07-02 08:23:20.676Z112.487° ESE30.376°2025-07-02 08:30:20.676Z46.75° ENE
14 mins2025-07-02 10:12:20.676Z235.273° WSW2025-07-02 10:19:20.676Z317.294° NNW37.579°2025-07-02 10:26:20.676Z21.802° NNE
6 mins2025-07-02 12:14:20.676Z313.155° NW2025-07-02 12:16:20.676Z329.704° NNW14.323°2025-07-02 12:20:20.676Z1.717° NNE
9 mins2025-07-02 16:12:20.676Z0.508° NNE2025-07-02 16:16:20.676Z35.666° NE18.473°2025-07-02 16:21:20.676Z76.646° E
13 mins2025-07-02 18:07:20.676Z335.924° NNW2025-07-02 18:13:20.676Z59.09° ENE43.53°2025-07-02 18:20:20.676Z141.045° SSE
10 mins2025-07-02 20:03:20.676Z298.6° NW2025-07-02 20:08:20.676Z253.704° W21.993°2025-07-02 20:13:20.676Z210.895° SW
|